FW7031 Weather Reports


Display with metric or nautical units.
time (UTC)temp
F
wind
direction
speed
MPH
gust
MPH
rain 1hr
in
rain 24hr
in
rain mn
in
humidity
%
barometer
mb
20260906213435 86 134 9.0 21.0 0.00 0.00 0.00 32 1021.4
20260906211937 85 130 10.0 21.0 0.00 0.00 0.00 33 1021.5
20260906210435 85 117 8.0 17.0 0.00 0.00 0.00 33 1021.5
20260906204935 86 154 7.0 18.0 0.00 0.00 0.00 34 1022.0
20260906204134 85 106 10.0 18.0 0.00 0.00 0.00 35 1022.1
20260906201933 86 134 9.0 18.0 0.00 0.00 0.00 35 1022.1
20260906200433 86 158 7.0 13.0 0.00 0.00 0.00 35 1022.4
20260906194933 86 129 9.0 18.0 0.00 0.00 0.00 33 1022.3
20260906193434 85 236 7.0 16.0 0.00 0.00 0.00 33 1022.4
20260906191933 85 165 9.0 18.0 0.00 0.00 0.00 33 1022.5
20260906190433 85 128 7.0 16.0 0.00 0.00 0.00 33 1022.9
20260906185630 84 136 6.0 13.0 0.00 0.00 0.00 33 1023.1
20260906183431 84 129 4.0 13.0 0.00 0.00 0.00 34 1023.6
20260906181931 84 130 5.0 12.0 0.00 0.00 0.00 36 1024.0
20260906180430 83 179 5.0 14.0 0.00 0.00 0.00 36 1024.2
20260906174931 82 256 3.0 13.0 0.00 0.00 0.00 37 1024.2
20260906173429 81 227 5.0 12.0 0.00 0.00 0.00 37 1024.5
20260906172619 82 137 5.0 14.0 0.00 0.00 0.00 36 1024.6
20260906170425 82 237 5.0 14.0 0.00 0.00 0.00 35 1024.6
20260906164925 82 140 5.0 11.0 0.00 0.00 0.00 35 1024.7
20260906163428 81 225 3.0 7.0 0.00 0.00 0.00 34 1024.7
20260906161926 80 279 3.0 9.0 0.00 0.00 0.00 35 1024.7
20260906160424 80 130 2.0 7.0 0.00 0.00 0.00 35 1024.7
20260906155627 80 170 0.0 7.0 0.00 0.00 0.00 35 1024.6
20260906154118 76 307 0.0 3.0 0.00 0.00 0.00 41 1024.5
20260906151925 75 341 1.0 7.0 0.00 0.00 0.00 41 1024.6
20260906150425 74 318 1.0 4.0 0.00 0.00 0.00 42 1024.5
20260906145624 73 350 0.0 4.0 0.00 0.00 0.00 45 1024.5
20260906143422 71 321 1.0 4.0 0.00 0.00 0.00 48 1024.3
20260906141922 70 29 0.0 4.0 0.00 0.00 0.00 49 1024.3
20260906140421 67 308 0.0 1.0 0.00 0.00 0.00 54 1024.2
20260906135619 67 309 0.0 4.0 0.00 0.00 0.00 53 1024.3
20260906133419 66 347 0.0 2.0 0.00 0.00 0.00 55 1024.2
20260906132623 63 347 0.0 1.0 0.00 0.00 0.00 59 1024.1
20260906130415 62 359 0.0 1.0 0.00 0.00 0.00 59 1024.0
20260906125604 62 359 0.0 0.0 0.00 0.00 0.00 59 1024.0
20260906123411 63 358 0.0 1.0 0.00 0.00 0.00 58 1024.0
20260906121909 63 358 0.0 2.0 0.00 0.00 0.00 58 1023.9
20260906120410 64 358 0.0 2.0 0.00 0.00 0.00 55 1023.9
20260906114907 64 36 0.0 2.0 0.00 0.00 0.00 55 1023.9
20260906113407 63 36 0.0 1.0 0.00 0.00 0.00 55 1023.9
20260906111906 64 35 0.0 2.0 0.00 0.00 0.00 56 1023.5
20260906110405 63 42 0.0 1.0 0.00 0.00 0.00 60 1023.4
20260906104902 64 42 0.0 0.0 0.00 0.00 0.00 60 1023.4
20260906103400 65 42 0.0 0.0 0.00 0.00 0.00 60 1023.4
20260906101855 66 42 0.0 2.0 0.00 0.00 0.00 60 1023.6
20260906101055 66 43 1.0 3.0 0.00 0.00 0.00 59 1023.9
20260906094854 67 348 0.0 2.0 0.00 0.00 0.00 58 1024.0
20260906093351 67 45 0.0 3.0 0.00 0.00 0.00 61 1023.7
20260906091849 66 341 0.0 4.0 0.00 0.00 0.00 64 1023.6
20260906090347 66 49 1.0 5.0 0.00 0.00 0.00 65 1023.5
20260906084847 66 329 1.0 5.0 0.00 0.00 0.00 66 1023.6
20260906083345 66 5 2.0 6.0 0.00 0.00 0.00 67 1023.6
20260906081842 66 319 1.0 4.0 0.00 0.00 0.00 69 1023.6
20260906080344 66 333 0.0 3.0 0.00 0.00 0.00 68 1023.7
20260906074842 66 48 1.0 3.0 0.00 0.00 0.00 68 1023.9
20260906073341 66 48 2.0 3.0 0.00 0.00 0.00 68 1023.9
20260906071839 66 46 2.0 4.0 0.00 0.00 0.00 68 1024.0
20260906071026 66 30 2.0 4.0 0.00 0.00 0.00 69 1024.1
20260906064839 66 46 1.0 4.0 0.00 0.00 0.00 70 1024.3
20260906063337 66 359 1.0 5.0 0.00 0.00 0.00 70 1024.3
20260906062539 68 114 0.0 4.0 0.00 0.00 0.00 65 1024.1
20260906061025 67 118 1.0 4.0 0.00 0.00 0.00 67 1024.0
20260906054829 67 111 0.0 1.0 0.00 0.00 0.00 69 1023.7
20260906053325 67 111 0.0 0.0 0.00 0.00 0.00 69 1023.7
20260906051825 67 111 0.0 0.0 0.00 0.00 0.00 68 1023.7
20260906050326 69 111 0.0 1.0 0.00 0.00 0.00 66 1023.9
20260906044822 70 111 0.0 1.0 0.00 0.00 0.00 64 1023.9
20260906043322 70 111 0.0 2.0 0.00 0.00 0.00 63 1024.1
20260906041821 71 115 0.0 3.0 0.00 0.00 0.00 61 1024.2
20260906040318 70 114 0.0 2.0 0.00 0.00 0.00 63 1024.1
20260906035511 71 114 0.0 1.0 0.00 0.00 0.00 62 1024.3
20260906033318 71 114 0.0 1.0 0.00 0.00 0.00 61 1024.1
20260906031813 73 115 0.0 2.0 0.00 0.00 0.00 58 1024.1
20260906030313 74 115 1.0 7.0 0.00 0.00 0.00 58 1023.9
20260906024813 74 129 2.0 6.0 0.00 0.00 0.00 56 1023.5
20260906023309 75 118 5.0 10.0 0.00 0.00 0.00 55 1023.4
20260906021807 75 92 2.0 6.0 0.00 0.00 0.00 45 1023.1
20260906020307 75 20 0.0 0.0 0.00 0.00 0.00 36 1022.5
20260906014807 76 20 0.0 2.0 0.00 0.00 0.00 33 1022.4
20260906013307 78 20 1.0 4.0 0.00 0.00 0.00 32 1022.3
20260906011806 79 44 2.0 5.0 0.00 0.00 0.00 32 1022.3
20260906010305 80 35 3.0 6.0 0.00 0.00 0.00 30 1022.3
20260906004809 82 350 3.0 7.0 0.00 0.00 0.00 29 1022.5
20260906003305 81 316 3.0 10.0 0.00 0.00 0.00 29 1022.6
20260906001806 83 312 3.0 10.0 0.00 0.00 0.00 27 1022.4
20260906000305 82 331 2.0 5.0 0.00 0.00 0.00 27 1022.4
20260905235457 82 317 0.0 2.0 0.00 0.00 0.00 30 1022.4
20260905233301 82 317 0.0 5.0 0.00 0.00 0.00 29 1022.3
20260905231800 82 292 0.0 4.0 0.00 0.00 0.00 29 1022.3
20260905230257 82 321 0.0 3.0 0.00 0.00 0.00 27 1022.3
20260905224755 82 349 2.0 9.0 0.00 0.00 0.00 27 1022.5
20260905223253 83 37 2.0 7.0 0.00 0.00 0.00 27 1022.6
20260905221753 82 340 2.0 6.0 0.00 0.00 0.00 29 1022.8
20260905220253 82 312 1.0 6.0 0.00 0.00 0.00 27 1022.8
20260905214754 82 328 1.0 7.0 0.00 0.00 0.00 27 1022.8